Simultaneous Nadir Overpasses (SNOs) Predictions

Prediction of SNOs between NOAA-19 and TERRA Satellite Orbit:

Table of predicted SNOs for the next 14.0 days since TLE Epoch: 11/12/2022
Index Date (NOAA-19) Time (NOAA-19) Lat,Lon (NOAA-19) SZA (NOAA-19 ) Date (TERRA) Time (TERRA) Lat,Lon (TERRA) SZA (TERRA ) Distance(km) Time Diff (sec)
1 11/13/2022 04:20:57 80.90, 150.17 100.79 11/13/2022 04:21:57 80.88, 150.10 100.79 2.25 60
2 11/13/2022 05:11:52 -80.90, -42.11 79.17 11/13/2022 05:11:20 -80.90, -42.00 79.16 2.25 32
3 11/15/2022 09:02:43 80.90, 80.30 101.40 11/15/2022 09:02:20 80.90, 80.14 101.38 2.83 23
4 11/17/2022 12:53:28 -80.90,-157.41 78.08 11/17/2022 12:53:21 -80.90,-157.55 78.09 2.52 7
5 11/19/2022 16:44:19 80.90, -35.51 102.39 11/19/2022 16:44:20 80.90, -35.33 102.40 3.07 1
6 11/21/2022 20:35:05 -80.90, 86.71 77.16 11/21/2022 20:35:21 -80.89, 86.81 77.15 2.01 16
7 11/24/2022 00:25:52 80.90,-150.82 103.30 11/24/2022 00:26:18 80.90,-150.89 103.30 1.21 26
8 11/24/2022 01:16:50 -80.90, 16.79 76.67 11/24/2022 01:15:42 -80.90, 16.77 76.70 0.41 68
9 11/26/2022 04:16:39 -80.90, -28.66 76.31 11/26/2022 04:17:18 -80.90, -28.59 76.29 1.22 39



Historial Predications of SNOs between NOAA-19 and TERRA
